Time,TemperatureF,DewpointF,PressureIn,WindDirection,WindDirectionDegrees,WindSpeedMPH,WindSpeedGustMPH,Humidity,HourlyPrecipIn,Conditions,Clouds,dailyrainin,SoftwareType,DateUTC
2013-02-07 00:00:00,25.2,3.1,29.94,ESE,116,0.0,0.0,38,0.00,,---,0.00,VWS V14.01,2013-02-07 05:00:00,
2013-02-07 00:02:00,25.2,3.1,29.94,ESE,116,0.0,0.0,38,0.00,,---,0.00,VWS V14.01,2013-02-07 05:02:00,
2013-02-07 00:08:00,24.4,-0.5,29.94,SSE,153,0.0,0.0,33,0.00,,---,0.00,VWS V14.01,2013-02-07 05:08:00,
2013-02-07 00:09:00,24.4,-0.5,29.94,East,83,0.0,2.2,33,0.00,,---,0.00,VWS V14.01,2013-02-07 05:09:00,
2013-02-07 00:11:00,24.3,-0.7,29.94,East,83,0.0,0.0,33,0.00,,---,0.00,VWS V14.01,2013-02-07 05:11:00,
2013-02-07 00:16:00,24.3,-0.7,29.94,East,100,0.0,0.0,33,0.00,,---,0.00,VWS V14.01,2013-02-07 05:16:00,
2013-02-07 00:22:00,24.1,-1.5,29.94,East,100,0.0,0.0,32,0.00,,---,0.00,VWS V14.01,2013-02-07 05:22:00,
2013-02-07 00:27:00,24.1,-1.5,29.94,East,100,0.0,0.0,32,0.00,,---,0.00,VWS V14.01,2013-02-07 05:27:00,
2013-02-07 00:32:00,24.1,-1.5,29.94,East,100,0.0,0.0,32,0.00,,---,0.00,VWS V14.01,2013-02-07 05:32:00,
2013-02-07 00:37:00,24.3,-1.3,29.94,East,101,0.0,0.0,32,0.00,,---,0.00,VWS V14.01,2013-02-07 05:37:00,
2013-02-07 00:43:00,24.8,1.0,29.94,East,93,0.0,0.0,35,0.00,,---,0.00,VWS V14.01,2013-02-07 05:43:00,
2013-02-07 00:48:00,24.8,1.0,29.94,East,81,4.9,4.9,35,0.00,,---,0.00,VWS V14.01,2013-02-07 05:48:00,
2013-02-07 00:54:00,25.2,0.8,29.94,East,85,2.2,2.2,34,0.00,,---,0.00,VWS V14.01,2013-02-07 05:54:00,
2013-02-07 00:59:00,24.4,-1.2,29.94,East,86,0.0,0.0,32,0.00,,---,0.00,VWS V14.01,2013-02-07 05:59:00,
2013-02-07 01:04:00,24.4,-1.2,29.94,East,86,0.0,0.0,32,0.00,,---,0.00,VWS V14.01,2013-02-07 06:04:00,
2013-02-07 01:10:00,24.4,-1.2,29.94,East,79,3.1,3.1,32,0.00,,---,0.00,VWS V14.01,2013-02-07 06:10:00,
2013-02-07 01:15:00,24.3,-1.3,29.94,East,84,3.6,3.6,32,0.00,,---,0.00,VWS V14.01,2013-02-07 06:15:00,
2013-02-07 01:21:00,24.3,-1.3,29.97,East,87,4.0,4.0,32,0.00,,---,0.00,VWS V14.01,2013-02-07 06:21:00,
2013-02-07 01:26:00,24.3,-1.3,29.97,East,87,4.0,4.0,32,0.00,,---,0.00,VWS V14.01,2013-02-07 06:26:00,
2013-02-07 01:32:00,24.4,-0.5,29.94,East,90,4.0,4.0,33,0.00,,---,0.00,VWS V14.01,2013-02-07 06:32:00,
2013-02-07 01:38:00,25.5,5.1,29.94,ESE,108,5.8,5.8,41,0.00,,---,0.00,VWS V14.01,2013-02-07 06:38:00,
2013-02-07 01:43:00,25.0,1.2,29.94,ENE,64,5.4,5.4,35,0.00,,---,0.00,VWS V14.01,2013-02-07 06:43:00,
2013-02-07 01:49:00,24.4,-0.5,29.94,East,97,5.8,5.8,33,0.00,,---,0.00,VWS V14.01,2013-02-07 06:49:00,
2013-02-07 01:54:00,24.4,-0.5,29.94,East,93,2.7,3.1,33,0.00,,---,0.00,VWS V14.01,2013-02-07 06:54:00,
2013-02-07 01:59:00,24.3,-0.7,29.97,East,97,4.0,4.0,33,0.00,,---,0.00,VWS V14.01,2013-02-07 06:59:00,
2013-02-07 02:04:00,24.3,-0.7,29.97,East,97,3.1,3.1,33,0.00,,---,0.00,VWS V14.01,2013-02-07 07:04:00,
2013-02-07 02:10:00,24.3,-0.7,29.97,East,96,3.6,3.6,33,0.00,,---,0.00,VWS V14.01,2013-02-07 07:10:00,
2013-02-07 02:15:00,24.3,-0.7,29.94,East,86,0.0,2.7,33,0.00,,---,0.00,VWS V14.01,2013-02-07 07:15:00,
2013-02-07 02:21:00,24.3,-0.7,29.94,East,81,2.7,2.7,33,0.00,,---,0.00,VWS V14.01,2013-02-07 07:21:00,
2013-02-07 02:26:00,24.3,-0.7,29.94,ESE,109,2.2,2.7,33,0.00,,---,0.00,VWS V14.01,2013-02-07 07:26:00,
2013-02-07 02:31:00,26.6,10.9,29.94,East,95,3.6,3.6,51,0.00,,---,0.00,VWS V14.01,2013-02-07 07:31:00,
2013-02-07 02:36:00,24.8,1.0,29.94,East,92,3.1,3.6,35,0.00,,---,0.00,VWS V14.01,2013-02-07 07:36:00,
2013-02-07 02:42:00,24.6,-0.4,29.94,East,87,2.7,2.7,33,0.00,,---,0.00,VWS V14.01,2013-02-07 07:42:00,
2013-02-07 02:47:00,24.4,-0.5,29.94,East,96,2.2,2.2,33,0.00,,---,0.00,VWS V14.01,2013-02-07 07:47:00,
2013-02-07 02:53:00,24.4,-0.5,29.94,East,100,3.1,5.8,33,0.00,,---,0.00,VWS V14.01,2013-02-07 07:53:00,
2013-02-07 02:59:00,24.3,-0.7,29.94,ESE,110,3.1,3.1,33,0.00,,---,0.00,VWS V14.01,2013-02-07 07:59:00,
2013-02-07 03:04:00,24.3,-0.7,29.94,East,88,3.6,3.6,33,0.00,,---,0.00,VWS V14.01,2013-02-07 08:04:00,
2013-02-07 03:09:00,24.1,-0.9,29.94,East,93,2.7,2.7,33,0.00,,---,0.00,VWS V14.01,2013-02-07 08:09:00,
2013-02-07 03:14:00,24.1,-0.9,29.94,East,85,3.1,3.1,33,0.00,,---,0.00,VWS V14.01,2013-02-07 08:14:00,
2013-02-07 03:20:00,25.2,3.7,29.94,East,84,0.0,0.0,39,0.00,,---,0.00,VWS V14.01,2013-02-07 08:20:00,
2013-02-07 03:25:00,25.2,2.6,29.94,ENE,57,2.7,2.7,37,0.00,,---,0.00,VWS V14.01,2013-02-07 08:25:00,
2013-02-07 03:31:00,24.6,0.3,29.94,NE,54,4.9,4.9,34,0.00,,---,0.00,VWS V14.01,2013-02-07 08:31:00,
2013-02-07 03:37:00,24.4,-0.5,29.94,East,83,3.1,3.1,33,0.00,,---,0.00,VWS V14.01,2013-02-07 08:37:00,
2013-02-07 03:42:00,24.4,-0.5,29.94,East,80,4.0,4.0,33,0.00,,---,0.00,VWS V14.01,2013-02-07 08:42:00,
2013-02-07 03:48:00,24.3,-0.7,29.94,East,81,2.7,2.7,33,0.00,,---,0.00,VWS V14.01,2013-02-07 08:48:00,
2013-02-07 03:53:00,24.3,-0.7,29.94,East,95,2.2,2.2,33,0.00,,---,0.00,VWS V14.01,2013-02-07 08:53:00,
2013-02-07 03:58:00,24.3,-0.7,29.94,East,84,0.0,0.0,33,0.00,,---,0.00,VWS V14.01,2013-02-07 08:58:00,
2013-02-07 04:03:00,24.3,-0.7,29.94,East,89,0.0,0.0,33,0.00,,---,0.00,VWS V14.01,2013-02-07 09:03:00,
2013-02-07 04:09:00,25.0,5.1,29.94,East,101,3.1,3.1,42,0.00,,---,0.00,VWS V14.01,2013-02-07 09:09:00,
2013-02-07 04:14:00,25.9,8.9,29.94,East,93,0.0,3.1,48,0.00,,---,0.00,VWS V14.01,2013-02-07 09:14:00,
2013-02-07 04:20:00,25.5,8.1,29.94,ESE,104,0.0,0.0,47,0.00,,---,0.00,VWS V14.01,2013-02-07 09:20:00,
2013-02-07 04:26:00,24.8,5.5,29.94,East,88,0.0,0.0,43,0.00,,---,0.00,VWS V14.01,2013-02-07 09:26:00,
2013-02-07 04:31:00,24.8,5.5,29.94,ENE,77,5.4,5.4,43,0.00,,---,0.00,VWS V14.01,2013-02-07 09:31:00,
2013-02-07 04:36:00,24.3,1.2,29.94,ESE,102,3.1,3.1,36,0.00,,---,0.00,VWS V14.01,2013-02-07 09:36:00,
2013-02-07 04:42:00,24.1,0.4,29.94,ESE,103,3.1,3.1,35,0.00,,---,0.00,VWS V14.01,2013-02-07 09:42:00,
2013-02-07 04:48:00,24.1,0.4,29.94,East,86,4.0,4.0,35,0.00,,---,0.00,VWS V14.01,2013-02-07 09:48:00,
2013-02-07 04:54:00,24.1,0.4,29.94,East,91,2.7,3.6,35,0.00,,---,0.00,VWS V14.01,2013-02-07 09:54:00,
2013-02-07 04:59:00,26.1,10.0,29.94,East,97,4.0,4.0,50,0.00,,---,0.00,VWS V14.01,2013-02-07 09:59:00,
2013-02-07 05:05:00,26.1,10.4,29.94,East,82,3.6,3.6,51,0.00,,---,0.00,VWS V14.01,2013-02-07 10:05:00,
2013-02-07 05:10:00,24.6,2.1,29.94,East,97,2.7,2.7,37,0.00,,---,0.00,VWS V14.01,2013-02-07 10:10:00,
2013-02-07 05:15:00,24.6,2.1,29.91,ENE,73,5.4,5.4,37,0.00,,---,0.00,VWS V14.01,2013-02-07 10:15:00,
2013-02-07 05:20:00,24.6,2.1,29.91,East,91,5.4,5.4,37,0.00,,---,0.00,VWS V14.01,2013-02-07 10:20:00,
2013-02-07 05:26:00,24.3,1.2,29.91,East,89,3.1,3.1,36,0.00,,---,0.00,VWS V14.01,2013-02-07 10:26:00,
2013-02-07 05:31:00,24.4,1.9,29.91,East,91,5.8,8.1,37,0.00,,---,0.00,VWS V14.01,2013-02-07 10:31:00,
2013-02-07 05:37:00,24.4,1.9,29.91,ENE,78,5.8,5.8,37,0.00,,---,0.00,VWS V14.01,2013-02-07 10:37:00,
2013-02-07 05:43:00,24.4,1.9,29.91,ESE,110,4.9,4.9,37,0.00,,---,0.00,VWS V14.01,2013-02-07 10:43:00,
2013-02-07 05:48:00,25.2,5.8,29.91,East,87,7.6,7.6,43,0.00,,---,0.00,VWS V14.01,2013-02-07 10:48:00,
2013-02-07 05:54:00,25.2,5.8,29.91,ENE,72,5.8,7.6,43,0.00,,---,0.00,VWS V14.01,2013-02-07 10:54:00,
2013-02-07 05:59:00,24.8,3.4,29.91,ENE,72,5.8,5.8,39,0.00,,---,0.00,VWS V14.01,2013-02-07 10:59:00,
2013-02-07 06:05:00,24.6,3.2,29.91,ESE,113,5.8,5.8,39,0.00,,---,0.00,VWS V14.01,2013-02-07 11:05:00,
2013-02-07 06:10:00,24.6,3.2,29.91,East,95,6.3,6.3,39,0.00,,---,0.00,VWS V14.01,2013-02-07 11:10:00,
2013-02-07 06:16:00,24.8,3.4,29.91,East,83,4.9,4.9,39,0.00,,---,0.00,VWS V14.01,2013-02-07 11:16:00,
2013-02-07 06:21:00,24.8,3.9,29.91,East,92,6.3,6.3,40,0.00,,---,0.00,VWS V14.01,2013-02-07 11:21:00,
2013-02-07 06:26:00,24.8,3.9,29.91,East,92,6.3,6.3,40,0.00,,---,0.00,VWS V14.01,2013-02-07 11:26:00,
2013-02-07 06:32:00,24.8,3.9,29.91,East,88,4.0,4.0,40,0.00,,---,0.00,VWS V14.01,2013-02-07 11:32:00,
2013-02-07 06:37:00,25.7,8.7,29.91,East,85,5.4,5.4,48,0.00,,---,0.00,VWS V14.01,2013-02-07 11:37:00,
2013-02-07 06:43:00,25.3,4.9,29.91,ENE,74,4.0,5.8,41,0.00,,---,0.00,VWS V14.01,2013-02-07 11:43:00,
2013-02-07 06:48:00,25.3,4.9,29.91,NE,51,3.1,3.1,41,0.00,,---,0.00,VWS V14.01,2013-02-07 11:48:00,
2013-02-07 06:54:00,25.2,4.8,29.91,NE,51,3.1,3.1,41,0.00,,---,0.00,VWS V14.01,2013-02-07 11:54:00,
2013-02-07 07:00:00,25.9,8.0,29.88,East,90,2.7,2.7,46,0.00,,---,0.00,VWS V14.01,2013-02-07 12:00:00,
2013-02-07 07:05:00,25.9,8.0,29.88,East,97,3.1,4.0,46,0.00,,---,0.00,VWS V14.01,2013-02-07 12:05:00,
2013-02-07 07:11:00,28.4,16.3,29.91,East,95,3.6,3.6,60,0.00,,---,0.00,VWS V14.01,2013-02-07 12:11:00,
2013-02-07 07:16:00,27.9,15.0,29.91,East,88,3.1,3.1,58,0.00,,---,0.00,VWS V14.01,2013-02-07 12:16:00,
2013-02-07 07:22:00,27.0,12.1,29.91,ENE,76,5.8,8.1,53,0.00,,---,0.00,VWS V14.01,2013-02-07 12:22:00,
2013-02-07 07:27:00,27.1,11.9,29.91,East,93,4.0,4.0,52,0.00,,---,0.00,VWS V14.01,2013-02-07 12:27:00,
2013-02-07 07:33:00,26.2,6.3,29.91,East,99,2.7,2.7,42,0.00,,---,0.00,VWS V14.01,2013-02-07 12:33:00,
2013-02-07 07:39:00,26.1,6.1,29.91,ENE,74,6.3,6.3,42,0.00,,---,0.00,VWS V14.01,2013-02-07 12:39:00,
2013-02-07 07:44:00,25.7,5.3,29.88,East,86,4.0,4.0,41,0.00,,---,0.00,VWS V14.01,2013-02-07 12:44:00,
2013-02-07 07:50:00,25.9,5.4,29.88,East,79,5.4,5.4,41,0.00,,---,0.00,VWS V14.01,2013-02-07 12:50:00,
2013-02-07 07:56:00,25.9,5.4,29.88,East,92,2.7,2.7,41,0.00,,---,0.00,VWS V14.01,2013-02-07 12:56:00,
2013-02-07 08:01:00,26.1,5.6,29.88,East,98,4.0,4.0,41,0.00,,---,0.00,VWS V14.01,2013-02-07 13:01:00,
2013-02-07 08:07:00,26.1,5.6,29.88,East,79,3.1,3.6,41,0.00,,---,0.00,VWS V14.01,2013-02-07 13:07:00,
2013-02-07 08:12:00,26.1,5.1,29.88,East,90,0.0,3.1,40,0.00,,---,0.00,VWS V14.01,2013-02-07 13:12:00,
2013-02-07 08:17:00,26.2,4.7,29.88,East,84,3.1,3.1,39,0.00,,---,0.00,VWS V14.01,2013-02-07 13:17:00,
2013-02-07 08:22:00,26.2,4.7,29.88,East,84,5.8,5.8,39,0.00,,---,0.00,VWS V14.01,2013-02-07 13:22:00,
2013-02-07 08:28:00,26.6,4.4,29.88,ENE,70,4.9,4.9,38,0.00,,---,0.00,VWS V14.01,2013-02-07 13:28:00,
2013-02-07 08:33:00,26.6,3.8,29.88,East,91,3.1,3.1,37,0.00,,---,0.00,VWS V14.01,2013-02-07 13:33:00,
2013-02-07 08:39:00,26.6,3.8,29.88,East,95,3.1,3.1,37,0.00,,---,0.00,VWS V14.01,2013-02-07 13:39:00,
2013-02-07 08:45:00,27.0,3.6,29.88,East,89,4.0,4.0,36,0.00,,---,0.00,VWS V14.01,2013-02-07 13:45:00,
2013-02-07 08:50:00,27.0,3.6,29.88,ESE,102,2.7,2.7,36,0.00,,---,0.00,VWS V14.01,2013-02-07 13:50:00,
2013-02-07 08:56:00,27.9,7.2,29.88,East,89,3.6,5.4,41,0.00,,---,0.00,VWS V14.01,2013-02-07 13:56:00,
2013-02-07 09:01:00,27.9,7.2,29.88,East,82,5.8,5.8,41,0.00,,---,0.00,VWS V14.01,2013-02-07 14:01:00,
2013-02-07 09:07:00,27.7,3.6,29.88,East,85,2.7,2.7,35,0.00,,---,0.00,VWS V14.01,2013-02-07 14:07:00,
2013-02-07 09:13:00,27.9,3.2,29.88,East,101,2.7,2.7,34,0.00,,---,0.00,VWS V14.01,2013-02-07 14:13:00,
2013-02-07 09:18:00,28.4,3.0,29.88,East,94,3.6,3.6,33,0.00,,---,0.00,VWS V14.01,2013-02-07 14:18:00,
2013-02-07 09:24:00,28.6,3.1,29.88,East,94,7.2,7.2,33,0.00,,---,0.00,VWS V14.01,2013-02-07 14:24:00,
2013-02-07 09:29:00,28.9,3.5,29.88,ESE,111,4.9,4.9,33,0.00,,---,0.00,VWS V14.01,2013-02-07 14:29:00,
2013-02-07 09:35:00,29.1,3.6,29.88,East,99,3.6,3.6,33,0.00,,---,0.00,VWS V14.01,2013-02-07 14:35:00,
2013-02-07 09:40:00,29.1,3.6,29.88,East,83,6.3,6.3,33,0.00,,---,0.00,VWS V14.01,2013-02-07 14:40:00,
2013-02-07 09:46:00,30.2,4.6,29.88,East,88,5.4,5.4,33,0.00,,---,0.00,VWS V14.01,2013-02-07 14:46:00,
2013-02-07 09:52:00,30.2,4.6,29.88,ENE,57,3.1,3.1,33,0.00,,---,0.00,VWS V14.01,2013-02-07 14:52:00,
2013-02-07 09:57:00,30.2,4.6,29.88,NE,47,4.0,4.0,33,0.00,,---,0.00,VWS V14.01,2013-02-07 14:57:00,
2013-02-07 10:03:00,31.3,4.9,29.88,ENE,75,2.7,3.6,32,0.00,,---,0.00,VWS V14.01,2013-02-07 15:03:00,
2013-02-07 10:08:00,31.8,4.6,29.88,ESE,120,4.9,4.9,31,0.00,,---,0.00,VWS V14.01,2013-02-07 15:08:00,
2013-02-07 10:14:00,33.3,12.1,29.85,ESE,106,4.0,4.0,41,0.00,,---,0.00,VWS V14.01,2013-02-07 15:14:00,
2013-02-07 10:19:00,33.1,5.8,29.85,East,85,6.3,6.3,31,0.00,,---,0.00,VWS V14.01,2013-02-07 15:19:00,
2013-02-07 10:24:00,32.7,4.7,29.85,ENE,66,5.8,5.8,30,0.00,,---,0.00,VWS V14.01,2013-02-07 15:24:00,
2013-02-07 10:30:00,32.7,4.7,29.85,NNE,32,8.7,8.7,30,0.00,,---,0.00,VWS V14.01,2013-02-07 15:30:00,
2013-02-07 10:35:00,32.9,4.9,29.85,ENE,74,6.3,8.7,30,0.00,,---,0.00,VWS V14.01,2013-02-07 15:35:00,
2013-02-07 10:41:00,33.4,5.3,29.85,ENE,66,5.8,8.1,30,0.00,,---,0.00,VWS V14.01,2013-02-07 15:41:00,
2013-02-07 10:47:00,33.4,5.3,29.85,ENE,74,8.7,8.7,30,0.00,,---,0.00,VWS V14.01,2013-02-07 15:47:00,
2013-02-07 10:52:00,33.6,5.5,29.85,ESE,117,5.8,5.8,30,0.00,,---,0.00,VWS V14.01,2013-02-07 15:52:00,
2013-02-07 10:58:00,33.8,5.7,29.85,East,88,7.6,7.6,30,0.00,,---,0.00,VWS V14.01,2013-02-07 15:58:00,
2013-02-07 11:03:00,33.8,5.7,29.85,East,88,7.6,7.6,30,0.00,,---,0.00,VWS V14.01,2013-02-07 16:03:00,
2013-02-07 11:08:00,33.6,4.0,29.85,East,95,6.3,6.3,28,0.00,,---,0.00,VWS V14.01,2013-02-07 16:08:00,
2013-02-07 11:13:00,33.6,4.0,29.88,ENE,75,8.7,8.7,28,0.00,,---,0.00,VWS V14.01,2013-02-07 16:13:00,
2013-02-07 11:19:00,34.3,3.8,29.88,ENE,76,2.7,3.6,27,0.00,,---,0.00,VWS V14.01,2013-02-07 16:19:00,
2013-02-07 11:24:00,34.3,3.8,29.88,ESE,110,8.1,8.1,27,0.00,,---,0.00,VWS V14.01,2013-02-07 16:24:00,
2013-02-07 11:30:00,34.9,4.3,29.85,ESE,110,8.1,8.1,27,0.00,,---,0.00,VWS V14.01,2013-02-07 16:30:00,
2013-02-07 11:35:00,35.2,4.6,29.85,NNE,26,3.6,3.6,27,0.00,,---,0.00,VWS V14.01,2013-02-07 16:35:00,
2013-02-07 11:41:00,35.1,4.5,29.88,East,88,2.2,6.3,27,0.00,,---,0.00,VWS V14.01,2013-02-07 16:41:00,
2013-02-07 11:46:00,35.1,4.5,29.88,East,88,2.2,2.2,27,0.00,,---,0.00,VWS V14.01,2013-02-07 16:46:00,
2013-02-07 11:51:00,35.1,4.5,29.88,North,3,5.8,5.8,27,0.00,,---,0.00,VWS V14.01,2013-02-07 16:51:00,
2013-02-07 11:57:00,34.9,4.3,29.85,North,3,2.7,2.7,27,0.00,,---,0.00,VWS V14.01,2013-02-07 16:57:00,
2013-02-07 12:02:00,35.1,2.8,29.85,NE,51,4.0,4.0,25,0.00,,---,0.00,VWS V14.01,2013-02-07 17:02:00,
2013-02-07 12:08:00,35.1,2.8,29.85,East,87,3.6,3.6,25,0.00,,---,0.00,VWS V14.01,2013-02-07 17:08:00,
2013-02-07 12:13:00,34.9,4.3,29.85,East,89,3.6,3.6,27,0.00,,---,0.00,VWS V14.01,2013-02-07 17:13:00,
2013-02-07 12:18:00,34.9,4.3,29.85,East,87,2.7,2.7,27,0.00,,---,0.00,VWS V14.01,2013-02-07 17:18:00,
2013-02-07 12:23:00,34.9,4.3,29.85,NE,36,4.9,4.9,27,0.00,,---,0.00,VWS V14.01,2013-02-07 17:23:00,
2013-02-07 12:29:00,34.2,2.0,29.85,NE,56,2.7,8.3,25,0.00,,---,0.00,VWS V14.01,2013-02-07 17:29:00,
2013-02-07 12:34:00,34.2,2.0,29.85,NE,44,4.9,4.9,25,0.00,,---,0.00,VWS V14.01,2013-02-07 17:34:00,
2013-02-07 12:40:00,34.3,3.8,29.83,NNE,24,2.2,2.2,27,0.00,,---,0.00,VWS V14.01,2013-02-07 17:40:00,
2013-02-07 12:46:00,34.3,3.8,29.83,East,100,3.6,5.8,27,0.00,,---,0.00,VWS V14.01,2013-02-07 17:46:00,
2013-02-07 12:51:00,34.5,4.0,29.83,East,87,5.4,5.4,27,0.00,,---,0.00,VWS V14.01,2013-02-07 17:51:00,
2013-02-07 12:57:00,34.5,4.0,29.83,East,88,3.1,5.8,27,0.00,,---,0.00,VWS V14.01,2013-02-07 17:57:00,
2013-02-07 13:02:00,34.3,3.8,29.83,NNE,16,4.0,4.0,27,0.00,,---,0.00,VWS V14.01,2013-02-07 18:02:00,
2013-02-07 13:08:00,34.3,3.8,29.83,ESE,106,2.7,3.6,27,0.00,,---,0.00,VWS V14.01,2013-02-07 18:08:00,
2013-02-07 13:13:00,34.3,3.8,29.83,East,99,3.1,3.1,27,0.00,,---,0.00,VWS V14.01,2013-02-07 18:13:00,
2013-02-07 13:19:00,34.5,6.3,29.83,East,83,4.0,4.0,30,0.00,,---,0.00,VWS V14.01,2013-02-07 18:19:00,
2013-02-07 13:24:00,34.5,6.3,29.83,ENE,70,3.6,3.6,30,0.00,,---,0.00,VWS V14.01,2013-02-07 18:24:00,
2013-02-07 13:29:00,34.0,5.8,29.83,East,95,5.8,5.8,30,0.00,,---,0.00,VWS V14.01,2013-02-07 18:29:00,
2013-02-07 13:35:00,34.0,3.5,29.83,ENE,70,3.1,3.1,27,0.00,,---,0.00,VWS V14.01,2013-02-07 18:35:00,
2013-02-07 13:40:00,34.0,3.5,29.83,NNE,31,5.8,5.8,27,0.00,,---,0.00,VWS V14.01,2013-02-07 18:40:00,
2013-02-07 13:46:00,34.0,3.5,29.83,NE,38,5.4,5.4,27,0.00,,---,0.00,VWS V14.01,2013-02-07 18:46:00,
2013-02-07 13:51:00,34.3,3.8,29.80,East,95,8.1,8.1,27,0.00,,---,0.00,VWS V14.01,2013-02-07 18:51:00,
2013-02-07 13:57:00,35.4,9.9,29.80,NE,36,5.4,5.4,34,0.00,,---,0.00,VWS V14.01,2013-02-07 18:57:00,
2013-02-07 14:03:00,35.8,7.4,29.80,ENE,66,4.0,5.4,30,0.00,,---,0.00,VWS V14.01,2013-02-07 19:03:00,
2013-02-07 14:09:00,35.8,7.4,29.80,ENE,68,5.8,5.8,30,0.00,,---,0.00,VWS V14.01,2013-02-07 19:09:00,
2013-02-07 14:15:00,36.1,5.4,29.80,East,98,5.8,5.8,27,0.00,,---,0.00,VWS V14.01,2013-02-07 19:15:00,
2013-02-07 14:21:00,36.1,5.4,29.80,NE,48,2.7,2.7,27,0.00,,---,0.00,VWS V14.01,2013-02-07 19:21:00,
2013-02-07 14:26:00,36.3,5.6,29.77,ENE,76,5.8,5.8,27,0.00,,---,0.00,VWS V14.01,2013-02-07 19:26:00,
2013-02-07 14:32:00,36.3,5.6,29.77,ENE,57,6.3,6.3,27,0.00,,---,0.00,VWS V14.01,2013-02-07 19:32:00,
2013-02-07 14:37:00,36.5,3.2,29.77,ENE,68,6.3,6.3,24,0.00,,---,0.00,VWS V14.01,2013-02-07 19:37:00,
2013-02-07 14:43:00,36.3,3.0,29.77,ENE,68,6.3,6.3,24,0.00,,---,0.00,VWS V14.01,2013-02-07 19:43:00,
2013-02-07 14:49:00,36.5,3.2,29.77,NNE,23,4.9,4.9,24,0.00,,---,0.00,VWS V14.01,2013-02-07 19:49:00,
2013-02-07 14:54:00,37.0,3.6,29.77,NE,54,5.4,5.4,24,0.00,,---,0.00,VWS V14.01,2013-02-07 19:54:00,
2013-02-07 15:00:00,37.0,3.6,29.77,ESE,103,8.3,8.3,24,0.00,,---,0.00,VWS V14.01,2013-02-07 20:00:00,
2013-02-07 15:05:00,36.7,3.3,29.77,NNE,18,6.3,6.3,24,0.00,,---,0.00,VWS V14.01,2013-02-07 20:05:00,
2013-02-07 15:10:00,36.3,3.0,29.77,SE,127,5.4,5.4,24,0.00,,---,0.00,VWS V14.01,2013-02-07 20:10:00,
2013-02-07 15:15:00,36.9,11.1,29.77,ENE,64,2.2,4.0,34,0.00,,---,0.00,VWS V14.01,2013-02-07 20:15:00,
2013-02-07 15:21:00,36.5,3.2,29.77,ENE,59,3.6,3.6,24,0.00,,---,0.00,VWS V14.01,2013-02-07 20:21:00,
2013-02-07 15:27:00,36.5,3.2,29.77,East,82,4.0,4.0,24,0.00,,---,0.00,VWS V14.01,2013-02-07 20:27:00,
2013-02-07 15:32:00,36.1,2.8,29.77,ENE,59,5.8,5.8,24,0.00,,---,0.00,VWS V14.01,2013-02-07 20:32:00,
2013-02-07 15:38:00,35.8,2.5,29.77,East,81,4.9,4.9,24,0.00,,---,0.00,VWS V14.01,2013-02-07 20:38:00,
2013-02-07 15:43:00,35.6,2.4,29.74,East,93,5.8,5.8,24,0.00,,---,0.00,VWS V14.01,2013-02-07 20:43:00,
2013-02-07 15:48:00,34.9,2.6,29.74,ENE,77,10.5,10.5,25,0.00,,---,0.00,VWS V14.01,2013-02-07 20:48:00,
2013-02-07 15:53:00,34.9,2.6,29.74,East,81,3.6,4.0,25,0.00,,---,0.00,VWS V14.01,2013-02-07 20:53:00,
2013-02-07 15:59:00,34.9,4.3,29.74,ESE,105,3.1,3.1,27,0.00,,---,0.00,VWS V14.01,2013-02-07 20:59:00,
2013-02-07 16:04:00,35.1,4.5,29.74,ENE,61,3.6,3.6,27,0.00,,---,0.00,VWS V14.01,2013-02-07 21:04:00,
2013-02-07 16:10:00,35.1,6.8,29.74,ENE,77,6.3,6.3,30,0.00,,---,0.00,VWS V14.01,2013-02-07 21:10:00,
2013-02-07 16:15:00,34.9,6.6,29.74,North,10,3.6,5.4,30,0.00,,---,0.00,VWS V14.01,2013-02-07 21:15:00,
2013-02-07 16:21:00,34.9,4.3,29.74,North,10,3.6,3.6,27,0.00,,---,0.00,VWS V14.01,2013-02-07 21:21:00,
2013-02-07 16:26:00,34.9,4.3,29.74,NNE,28,6.3,6.3,27,0.00,,---,0.00,VWS V14.01,2013-02-07 21:26:00,
2013-02-07 16:31:00,34.9,4.3,29.74,NNE,17,4.5,4.5,27,0.00,,---,0.00,VWS V14.01,2013-02-07 21:31:00,
2013-02-07 16:36:00,34.9,4.3,29.74,NNE,18,4.0,4.9,27,0.00,,---,0.00,VWS V14.01,2013-02-07 21:36:00,
2013-02-07 16:42:00,33.8,5.7,29.74,ESE,105,3.6,3.6,30,0.00,,---,0.00,VWS V14.01,2013-02-07 21:42:00,
2013-02-07 16:48:00,33.6,5.5,29.74,East,85,4.9,6.7,30,0.00,,---,0.00,VWS V14.01,2013-02-07 21:48:00,
2013-02-07 16:54:00,33.6,5.5,29.74,ESE,113,5.8,5.8,30,0.00,,---,0.00,VWS V14.01,2013-02-07 21:54:00,
2013-02-07 17:00:00,33.6,5.5,29.74,North,11,3.1,3.1,30,0.00,,---,0.00,VWS V14.01,2013-02-07 22:00:00,
2013-02-07 17:06:00,33.1,3.5,29.74,NE,39,4.9,4.9,28,0.00,,---,0.00,VWS V14.01,2013-02-07 22:06:00,
2013-02-07 17:11:00,33.1,5.0,29.71,ENE,59,3.1,3.1,30,0.00,,---,0.00,VWS V14.01,2013-02-07 22:11:00,
2013-02-07 17:16:00,33.1,5.0,29.71,NNE,32,2.7,6.3,30,0.00,,---,0.00,VWS V14.01,2013-02-07 22:16:00,
2013-02-07 17:21:00,32.7,4.7,29.71,East,80,0.0,4.9,30,0.00,,---,0.00,VWS V14.01,2013-02-07 22:21:00,
2013-02-07 17:26:00,32.7,4.7,29.71,North,357,3.6,4.0,30,0.00,,---,0.00,VWS V14.01,2013-02-07 22:26:00,
2013-02-07 17:31:00,32.7,4.7,29.71,NE,49,2.7,5.8,30,0.00,,---,0.00,VWS V14.01,2013-02-07 22:31:00,
2013-02-07 17:37:00,32.7,5.4,29.71,East,91,2.7,2.7,31,0.00,,---,0.00,VWS V14.01,2013-02-07 22:37:00,
2013-02-07 17:42:00,32.7,5.4,29.71,SE,138,6.7,6.7,31,0.00,,---,0.00,VWS V14.01,2013-02-07 22:42:00,
2013-02-07 17:48:00,32.4,5.1,29.71,ENE,65,4.0,4.0,31,0.00,,---,0.00,VWS V14.01,2013-02-07 22:48:00,
2013-02-07 17:53:00,32.0,4.8,29.71,East,95,4.0,5.8,31,0.00,,---,0.00,VWS V14.01,2013-02-07 22:53:00,
2013-02-07 17:59:00,32.0,4.8,29.71,NNW,327,0.0,0.0,31,0.00,,---,0.00,VWS V14.01,2013-02-07 22:59:00,
2013-02-07 18:04:00,31.6,4.5,29.71,ENE,58,5.8,6.3,31,0.00,,---,0.00,VWS V14.01,2013-02-07 23:04:00,
2013-02-07 18:10:00,31.5,4.3,29.71,ESE,103,4.9,4.9,31,0.00,,---,0.00,VWS V14.01,2013-02-07 23:10:00,
2013-02-07 18:16:00,31.3,4.2,29.71,ENE,59,4.0,4.0,31,0.00,,---,0.00,VWS V14.01,2013-02-07 23:16:00,
2013-02-07 18:21:00,31.1,4.0,29.71,ESE,104,3.1,4.0,31,0.00,,---,0.00,VWS V14.01,2013-02-07 23:21:00,
2013-02-07 18:27:00,31.1,4.0,29.71,ENE,75,0.0,0.0,31,0.00,,---,0.00,VWS V14.01,2013-02-07 23:27:00,
2013-02-07 18:32:00,31.8,10.3,29.71,NE,41,4.0,5.4,40,0.00,,---,0.00,VWS V14.01,2013-02-07 23:32:00,
2013-02-07 18:38:00,31.3,5.5,29.71,ESE,113,6.3,6.3,33,0.00,,---,0.00,VWS V14.01,2013-02-07 23:38:00,
2013-02-07 18:44:00,31.1,4.0,29.71,ENE,60,2.7,2.7,31,0.00,,---,0.00,VWS V14.01,2013-02-07 23:44:00,
2013-02-07 18:49:00,30.9,3.8,29.71,NNE,32,3.1,3.6,31,0.00,,---,0.00,VWS V14.01,2013-02-07 23:49:00,
2013-02-07 18:55:00,30.7,3.7,29.71,NE,42,3.6,3.6,31,0.00,,---,0.00,VWS V14.01,2013-02-07 23:55:00,
2013-02-07 19:01:00,30.9,3.8,29.71,East,99,3.6,3.6,31,0.00,,---,0.00,VWS V14.01,2013-02-08 00:01:00,
2013-02-07 19:06:00,30.6,2.8,29.71,East,99,3.6,3.6,30,0.00,,---,0.00,VWS V14.01,2013-02-08 00:06:00,
2013-02-07 19:11:00,30.6,2.8,29.71,NNE,21,4.0,4.0,30,0.00,,---,0.00,VWS V14.01,2013-02-08 00:11:00,
2013-02-07 19:16:00,30.6,2.8,29.71,East,92,3.6,3.6,30,0.00,,---,0.00,VWS V14.01,2013-02-08 00:16:00,
2013-02-07 19:22:00,30.6,2.8,29.71,North,353,3.6,3.6,30,0.00,,---,0.00,VWS V14.01,2013-02-08 00:22:00,
2013-02-07 19:27:00,30.7,3.7,29.71,NW,310,3.1,4.9,31,0.00,,---,0.00,VWS V14.01,2013-02-08 00:27:00,
2013-02-07 19:33:00,31.6,10.6,29.68,West,273,3.6,3.6,41,0.00,,---,0.00,VWS V14.01,2013-02-08 00:33:00,
2013-02-07 19:38:00,30.9,3.1,29.68,North,5,3.1,3.1,30,0.00,,---,0.00,VWS V14.01,2013-02-08 00:38:00,
2013-02-07 19:43:00,30.7,1.5,29.68,East,99,0.0,3.1,28,0.00,,---,0.00,VWS V14.01,2013-02-08 00:43:00,
2013-02-07 19:48:00,30.7,1.5,29.68,East,80,3.1,3.1,28,0.00,,---,0.00,VWS V14.01,2013-02-08 00:48:00,
2013-02-07 19:54:00,30.4,1.2,29.68,SE,131,4.0,5.4,28,0.00,,---,0.00,VWS V14.01,2013-02-08 00:54:00,
2013-02-07 19:59:00,30.2,2.5,29.68,NNE,32,3.6,3.6,30,0.00,,---,0.00,VWS V14.01,2013-02-08 00:59:00,
2013-02-07 20:05:00,30.2,3.2,29.68,NE,38,0.0,0.0,31,0.00,,---,0.00,VWS V14.01,2013-02-08 01:05:00,
2013-02-07 20:11:00,30.2,3.2,29.68,NE,39,4.0,4.0,31,0.00,,---,0.00,VWS V14.01,2013-02-08 01:11:00,
2013-02-07 20:16:00,30.0,2.3,29.68,SE,132,6.3,6.3,30,0.00,,---,0.00,VWS V14.01,2013-02-08 01:16:00,
2013-02-07 20:21:00,30.4,4.7,29.68,NE,50,2.2,4.9,33,0.00,,---,0.00,VWS V14.01,2013-02-08 01:21:00,
2013-02-07 20:26:00,30.4,4.7,29.68,NE,43,2.7,4.0,33,0.00,,---,0.00,VWS V14.01,2013-02-08 01:26:00,
2013-02-07 20:31:00,30.6,2.8,29.68,ESE,104,7.6,7.6,30,0.00,,---,0.00,VWS V14.01,2013-02-08 01:31:00,
2013-02-07 20:37:00,30.2,1.0,29.68,NNE,20,4.0,6.3,28,0.00,,---,0.00,VWS V14.01,2013-02-08 01:37:00,
2013-02-07 20:43:00,30.2,1.0,29.68,NNE,28,3.1,4.0,28,0.00,,---,0.00,VWS V14.01,2013-02-08 01:43:00,
2013-02-07 20:48:00,30.0,-1.5,29.68,East,96,3.6,3.6,25,0.00,,---,0.00,VWS V14.01,2013-02-08 01:48:00,
2013-02-07 20:54:00,30.0,-1.5,29.68,NE,39,3.1,4.9,25,0.00,,---,0.00,VWS V14.01,2013-02-08 01:54:00,
2013-02-07 20:59:00,29.8,-1.7,29.68,ESE,108,0.0,3.1,25,0.00,,---,0.00,VWS V14.01,2013-02-08 01:59:00,
2013-02-07 21:05:00,29.8,-1.7,29.68,NNE,18,3.1,3.1,25,0.00,,---,0.00,VWS V14.01,2013-02-08 02:05:00,
2013-02-07 21:10:00,29.8,-1.7,29.68,NNE,16,5.8,5.8,25,0.00,,---,0.00,VWS V14.01,2013-02-08 02:10:00,
2013-02-07 21:15:00,30.6,7.4,29.68,NNE,19,3.6,4.0,37,0.00,,---,0.00,VWS V14.01,2013-02-08 02:15:00,
2013-02-07 21:21:00,30.6,7.4,29.68,NNE,32,4.0,4.0,37,0.00,,---,0.00,VWS V14.01,2013-02-08 02:21:00,
2013-02-07 21:26:00,30.2,1.0,29.68,East,88,3.6,3.6,28,0.00,,---,0.00,VWS V14.01,2013-02-08 02:26:00,
2013-02-07 21:32:00,30.2,1.0,29.65,NE,54,5.4,5.4,28,0.00,,---,0.00,VWS V14.01,2013-02-08 02:32:00,
2013-02-07 21:37:00,29.7,-1.8,29.65,East,79,3.6,5.4,25,0.00,,---,0.00,VWS V14.01,2013-02-08 02:37:00,
2013-02-07 21:43:00,29.7,-1.8,29.65,East,95,3.6,3.6,25,0.00,,---,0.00,VWS V14.01,2013-02-08 02:43:00,
2013-02-07 21:49:00,29.7,0.6,29.65,NE,43,4.0,4.0,28,0.00,,---,0.00,VWS V14.01,2013-02-08 02:49:00,
2013-02-07 21:54:00,29.7,0.6,29.65,NNE,28,4.9,5.4,28,0.00,,---,0.00,VWS V14.01,2013-02-08 02:54:00,
2013-02-07 22:00:00,29.7,0.6,29.65,ENE,64,2.7,2.7,28,0.00,,---,0.00,VWS V14.01,2013-02-08 03:00:00,
2013-02-07 22:05:00,29.5,2.6,29.65,NE,47,3.6,5.4,31,0.00,,---,0.00,VWS V14.01,2013-02-08 03:05:00,
2013-02-07 22:10:00,29.7,2.7,29.62,NNW,337,3.1,3.1,31,0.00,,---,0.00,VWS V14.01,2013-02-08 03:10:00,
2013-02-07 22:15:00,29.7,2.0,29.62,NW,317,0.0,0.0,30,0.00,,---,0.00,VWS V14.01,2013-02-08 03:15:00,
2013-02-07 22:20:00,29.7,2.0,29.62,NNW,341,2.7,2.7,30,0.00,,---,0.00,VWS V14.01,2013-02-08 03:20:00,
2013-02-07 22:25:00,29.5,0.4,29.62,North,0,3.6,3.6,28,0.00,,---,0.00,VWS V14.01,2013-02-08 03:25:00,
2013-02-07 22:31:00,29.5,1.9,29.62,NNE,17,2.7,2.7,30,0.00,,---,0.00,VWS V14.01,2013-02-08 03:31:00,
2013-02-07 22:36:00,29.5,1.9,29.62,ENE,68,0.0,0.0,30,0.00,,---,0.00,VWS V14.01,2013-02-08 03:36:00,
2013-02-07 22:42:00,29.3,1.7,29.62,East,83,3.6,5.8,30,0.00,,---,0.00,VWS V14.01,2013-02-08 03:42:00,
2013-02-07 22:47:00,29.3,1.7,29.62,NNE,30,3.6,3.6,30,0.00,,---,0.00,VWS V14.01,2013-02-08 03:47:00,
2013-02-07 22:53:00,29.3,1.7,29.62,NW,306,4.0,4.0,30,0.00,,---,0.00,VWS V14.01,2013-02-08 03:53:00,
2013-02-07 22:58:00,29.5,0.4,29.62,ENE,65,2.2,2.7,28,0.00,,---,0.00,VWS V14.01,2013-02-08 03:58:00,
2013-02-07 23:04:00,29.7,5.4,29.62,NNW,327,2.7,2.7,35,0.00,,---,0.00,VWS V14.01,2013-02-08 04:04:00,
2013-02-07 23:10:00,31.3,12.4,29.62,East,98,0.0,0.0,45,0.00,,---,0.00,VWS V14.01,2013-02-08 04:10:00,
2013-02-07 23:15:00,31.3,12.4,29.62,ENE,69,0.0,0.0,45,0.00,,---,0.00,VWS V14.01,2013-02-08 04:15:00,
2013-02-07 23:21:00,29.8,2.9,29.65,NNW,345,0.0,0.0,31,0.00,,---,0.00,VWS V14.01,2013-02-08 04:21:00,
2013-02-07 23:27:00,29.8,2.9,29.65,NNW,338,2.2,2.2,31,0.00,,---,0.00,VWS V14.01,2013-02-08 04:27:00,
2013-02-07 23:32:00,29.7,2.7,29.62,East,88,0.0,0.0,31,0.00,,---,0.00,VWS V14.01,2013-02-08 04:32:00,
2013-02-07 23:38:00,29.7,2.7,29.62,North,8,0.0,0.0,31,0.00,,---,0.00,VWS V14.01,2013-02-08 04:38:00,
2013-02-07 23:43:00,29.5,2.6,29.62,NW,321,2.7,2.7,31,0.00,,---,0.00,VWS V14.01,2013-02-08 04:43:00,
2013-02-07 23:49:00,29.5,2.6,29.62,NE,39,0.0,0.0,31,0.00,,---,0.00,VWS V14.01,2013-02-08 04:49:00,
2013-02-07 23:55:00,29.5,3.3,29.62,NE,43,0.0,0.0,32,0.00,,---,0.00,VWS V14.01,2013-02-08 04:55:00,